Location: Saleratus Ranch
(37.7914°N, 109.6108°W)
Time: 23:39:12
(UTC-07:00)

Amateur Radio Satellites - All Passes

Search period start: 20 November 2017 23:09
Search period end: 21 November 2017 23:09
Location: Saleratus Ranch, 37.7914°N, 109.6108°W

Satellite Date Start Highest point End Downlink Frequencies (MHz)
Time Altitude Azimuth
PRISM 20 Nov 23:09:41 23:13:47 58° 285° (WNW) 23:17:50 437.425
RS-15 20 Nov 23:14:32 23:22:10 18° 350° (N) 23:29:40 29.354- 29.394
ISS 20 Nov 23:21:11 23:21:48 10° 344° (NNW) 23:22:24 437.550
DUCHIFAT 1 20 Nov 23:25:47 23:28:00 14° 93° (E) 23:30:13 145.980
SO-50 20 Nov 23:27:50 23:30:34 16° 315° (NW) 23:33:19 436.795
EO-79 20 Nov 23:31:44 23:35:02 22° 95° (E) 23:38:18 145.935-145.965
NO-84 20 Nov 23:32:03 23:36:02 39° 232° (SW) 23:39:56 435.350 FM
NANOSAT C BR1 20 Nov 23:35:17 23:38:31 21° 95° (E) 23:41:43 145.865
AIST 2D 20 Nov 23:43:17 23:46:47 66° 283° (WNW) 23:50:17 435.315
O/OREOS (USA 219) 20 Nov 23:45:35 23:50:08 83° 250° (WSW) 23:54:37 437.305
POLYITAN 1 20 Nov 23:46:33 23:50:20 33° 97° (E) 23:54:06 437.675
PCSat 20 Nov 23:53:08 23:58:10 42° 111° (ESE) 00:03:15 145.827
SPROUT 20 Nov 23:59:21 00:03:38 88° 73° (ENE) 00:07:56 437.525
QB50P2 21 Nov 00:09:32 00:13:44 73° 103° (ESE) 00:17:54 145.880/145.840
ESTCUBE 1 21 Nov 00:15:56 00:18:29 15° 268° (W) 00:21:03 437.505/2401.250
BUGSAT 1 21 Nov 00:19:59 00:21:51 13° 92° (E) 00:23:42 437.445
UKube-1 21 Nov 00:30:34 00:33:14 16° 66° (ENE) 00:35:55 .
VELOX 1 21 Nov 00:35:31 00:39:52 57° 259° (W) 00:44:15 145.980
DUCHIFAT 1 21 Nov 00:59:55 01:03:49 40° 287° (WNW) 01:07:42 145.980
50 SAT 21 Nov 01:01:13 01:04:24 65° 76° (ENE) 01:07:37 437.505
EO-79 21 Nov 01:07:14 01:10:43 26° 290° (WNW) 01:14:11 145.935-145.965
NANOSAT C BR1 21 Nov 01:10:39 01:14:09 27° 290° (WNW) 01:17:40 145.865
DX 1 21 Nov 01:21:50 01:26:11 80° 257° (WSW) 01:30:34 434.975-435.025
POLYITAN 1 21 Nov 01:22:59 01:25:51 18° 292° (WNW) 01:28:42 437.675
ITUPSAT 1 21 Nov 01:30:22 01:31:08 10° 61° (ENE) 01:31:55 437.325
RS-15 21 Nov 01:31:56 01:41:04 24° 27° (NNE) 01:49:50 29.354- 29.394
Oscar 19 21 Nov 01:32:08 01:37:07 48° 100° (E) 01:42:06 437.125/150
PCSat 21 Nov 01:37:11 01:41:41 26° 308° (NW) 01:46:14 145.827
MOZHAYETS 4 21 Nov 01:42:49 01:45:50 18° 66° (ENE) 01:48:51
nSIGHT-1 21 Nov 01:52:29 01:53:34 11° 18° (NNE) 01:54:38 .
BUGSAT 1 21 Nov 01:53:36 01:57:23 41° 287° (WNW) 02:01:08 437.445
Gurwin Techsat 1B 21 Nov 01:55:11 02:00:26 58° 101° (E) 02:05:38 435.225
UKube-1 21 Nov 02:04:49 02:08:53 41° 261° (W) 02:12:59 .
AO-7 21 Nov 02:13:20 02:17:33 14° 91° (E) 02:21:42 .
ISS 21 Nov 02:34:57 02:37:11 17° 25° (NNE) 02:39:25 437.550
BEESAT 3 21 Nov 02:41:21 02:45:17 68° 118° (ESE) 02:49:15 437.485
BEESAT 21 Nov 02:53:55 02:58:40 82° 76° (ENE) 03:03:27 436.000
ITUPSAT 1 21 Nov 03:03:28 03:08:15 82° 257° (WSW) 03:13:02 437.325
M-CUBED/EXP-1 PRIME 21 Nov 03:07:15 03:11:50 75° 107° (ESE) 03:16:27 437.505
Oscar 19 21 Nov 03:12:29 03:16:03 19° 295° (WNW) 03:19:37 437.125/150
MOZHAYETS 4 21 Nov 03:18:21 03:22:39 41° 262° (W) 03:26:57
ITAMSAT 1 21 Nov 03:24:25 03:29:02 31° 97° (E) 03:33:35 435.822/435.867
nSIGHT-1 21 Nov 03:27:17 03:30:24 51° 37° (NE) 03:33:30 .
CUBESAT XI-V 21 Nov 03:29:06 03:33:33 53° 74° (ENE) 03:38:02 437.345
Gurwin Techsat 1B 21 Nov 03:36:29 03:39:52 17° 297° (WNW) 03:43:13 435.225
KKS-1 21 Nov 03:36:37 03:39:06 15° 65° (ENE) 03:41:37 437.445
RS-15 21 Nov 03:44:32 03:56:22 68° 55° (NE) 04:07:30 29.354- 29.394
BEESAT 2 21 Nov 03:52:18 03:56:17 71° 302° (WNW) 04:00:19 435.950
STARS 21 Nov 04:02:51 04:03:54 11° 63° (ENE) 04:04:56 437.465
AO-7 21 Nov 04:02:55 04:11:18 84° 107° (ESE) 04:19:40 .
DOVE 4 21 Nov 04:08:01 04:10:44 14° 89° (E) 04:13:23 437.250
ISS 21 Nov 04:10:43 04:13:57 67° 222° (SW) 04:17:09 437.550
BEESAT 3 21 Nov 04:21:36 04:23:15 12° 316° (NW) 04:24:54 437.485
YUBILEINY 21 Nov 04:22:48 04:28:59 22° 80° (E) 04:35:11 435.215
AO-85 21 Nov 04:42:42 04:46:29 54° 303° (WNW) 04:50:26 145.980
M-CUBED/EXP-1 PRIME 21 Nov 04:43:50 04:45:36 12° 301° (WNW) 04:47:23 437.505
ITAMSAT 1 21 Nov 05:03:56 05:08:22 29° 293° (WNW) 05:12:46 435.822/435.867
nSIGHT-1 21 Nov 05:04:43 05:06:18 13° 232° (SW) 05:07:52 .
CUBESAT XI-V 21 Nov 05:09:06 05:11:13 13° 269° (W) 05:13:20 437.345
KKS-1 21 Nov 05:10:54 05:15:12 49° 260° (W) 05:19:35 437.445
KAITUO 1B 21 Nov 05:31:53 05:33:09 11° 92° (E) 05:34:23 145.475/437.950
STARS 21 Nov 05:35:12 05:39:36 69° 258° (WSW) 05:44:02 437.465
DOVE 4 21 Nov 05:43:44 05:48:49 59° 286° (WNW) 05:53:38 437.250
XW-2D 21 Nov 05:44:55 05:48:06 25° 96° (E) 05:51:17 145.860 - 145.880
AO-7 21 Nov 05:57:15 06:03:04 22° 306° (NW) 06:08:56 .
RS-15 21 Nov 05:58:10 06:07:48 32° 256° (WSW) 06:17:04 29.354- 29.394
XW-2B 21 Nov 05:59:27 06:03:00 37° 98° (E) 06:06:32 145.730 - 145.750
STRAND 1 21 Nov 05:59:52 06:03:49 23° 66° (ENE) 06:07:48 437.568
HO-68 21 Nov 06:06:15 06:10:56 18° 92° (E) 06:15:34 435.675
NUDT-PHONESAT 21 Nov 06:14:40 06:18:09 38° 98° (E) 06:21:37 437.300
YUBILEINY 21 Nov 06:16:07 06:24:49 71° 279° (W) 06:33:38 435.215
SO-50 21 Nov 06:18:10 06:22:25 34° 53° (NE) 06:26:41 436.795
XW-2C 21 Nov 06:24:51 06:28:39 85° 102° (ESE) 06:32:28 145.795 - 145.815
LilacSat-2 21 Nov 06:26:45 06:30:37 83° 280° (W) 06:34:26 437.200
CUTE 1.7 + AOD 2 21 Nov 06:28:36 06:31:40 19° 94° (E) 06:34:44 437.475
CUTE-I 21 Nov 06:34:47 06:40:09 71° 102° (ESE) 06:45:28 437.470
XW-2F 21 Nov 06:35:37 06:39:23 74° 282° (WNW) 06:43:10 145.980 - 146.000
SEEDS 21 Nov 06:58:45 07:02:18 25° 96° (E) 07:05:49 437.485
KAITUO 1B 21 Nov 07:03:43 07:07:16 40° 286° (WNW) 07:10:49 145.475/437.950
AAUSAT CUBESAT 2 21 Nov 07:07:00 07:08:51 13° 92° (E) 07:10:41 437.432
FO-29 21 Nov 07:18:57 07:24:54 37° 66° (ENE) 07:31:29 435.910
XW-2D 21 Nov 07:19:22 07:22:05 19° 291° (WNW) 07:24:49 145.860 - 145.880
CUBEBUG 2 21 Nov 07:23:51 07:27:52 46° 99° (E) 07:31:49 437.445
AO-73 21 Nov 07:27:53 07:29:18 11° 92° (E) 07:30:43 145.935
XW-2B 21 Nov 07:34:54 07:36:49 14° 293° (WNW) 07:38:44 145.730 - 145.750
XW-2A 21 Nov 07:36:59 07:39:58 29° 98° (E) 07:42:57 145.665 - 145.685
STRAND 1 21 Nov 07:37:55 07:42:43 39° 262° (W) 07:47:33 437.568
Oscar 11 21 Nov 07:44:01 07:45:52 12° 91° (E) 07:47:43 .
NUDT-PHONESAT 21 Nov 07:50:04 07:51:36 12° 293° (WNW) 07:53:09 437.300
HO-68 21 Nov 07:52:05 07:59:15 75° 288° (WNW) 08:06:22 435.675
SO-50 21 Nov 07:58:53 08:02:42 25° 248° (WSW) 08:06:33 436.795
CUTE 1.7 + AOD 2 21 Nov 08:03:44 08:07:31 32° 288° (WNW) 08:11:18 437.475
ZACube-1 21 Nov 08:10:48 08:14:46 44° 99° (E) 08:18:46 437.345
CUTE-I 21 Nov 08:16:45 08:19:32 14° 298° (WNW) 08:22:19 437.470
YUBILEINY 21 Nov 08:19:59 08:23:21 12° 300° (WNW) 08:26:44 435.215
UWE-3 21 Nov 08:20:33 08:24:39 66° 284° (WNW) 08:28:45 435.000/436.395/437.385
SEEDS 21 Nov 08:34:26 08:37:51 24° 290° (WNW) 08:41:15 437.485
AAUSAT CUBESAT 2 21 Nov 08:40:29 08:44:30 46° 286° (WNW) 08:48:29 437.432
PCSat 21 Nov 08:42:57 08:47:22 25° 51° (NE) 08:51:45 145.827
UNISAT 6 21 Nov 08:59:06 09:03:29 48° 74° (ENE) 09:07:49 437.425
AO-73 21 Nov 09:01:47 09:05:47 48° 285° (WNW) 09:09:47 145.935
CUBEBUG 2 21 Nov 09:02:07 09:04:02 13° 295° (WNW) 09:05:57 437.445
FALCONSAT 3 21 Nov 09:02:42 09:05:13 18° 154° (SSE) 09:07:44 435.103
TIGRISAT 21 Nov 09:03:25 09:07:49 49° 74° (ENE) 09:12:09 435.000
FO-29 21 Nov 09:03:49 09:09:48 38° 265° (W) 09:16:30 435.910
DELFI C3 21 Nov 09:10:47 09:14:01 23° 95° (E) 09:17:12 145.870
XW-2A 21 Nov 09:10:53 09:12:21 12° 292° (WNW) 09:13:50 145.665 - 145.685
Oscar 11 21 Nov 09:18:05 09:22:15 50° 286° (WNW) 09:26:25 .
HO-68 21 Nov 09:42:38 09:45:45 13° 306° (NW) 09:48:51 435.675
ZACube-1 21 Nov 09:48:35 09:50:39 14° 294° (WNW) 09:52:43 437.345
PRISM 21 Nov 09:56:25 10:00:31 73° 75° (ENE) 10:04:39 437.425
EO-88 21 Nov 10:12:30 10:16:08 67° 101° (ESE) 10:19:44 145.990 - 145.960
Max Valier Satellite 21 Nov 10:14:29 10:18:08 75° 283° (WNW) 10:21:47 145.860
AIST 2D 21 Nov 10:15:38 10:18:37 28° 72° (ENE) 10:21:37 435.315
EO-79 21 Nov 10:23:16 10:25:32 14° 66° (ENE) 10:27:48 145.935-145.965
PCSat 21 Nov 10:25:48 10:30:57 46° 248° (WSW) 10:36:04 145.827
NANOSAT C BR1 21 Nov 10:26:33 10:28:40 14° 66° (ENE) 10:30:48 145.865
ESTCUBE 1 21 Nov 10:34:00 10:35:02 11° 91° (E) 10:36:04 437.505/2401.250
POLYITAN 1 21 Nov 10:37:38 10:40:47 21° 68° (ENE) 10:43:55 437.675
LO-87 21 Nov 10:37:50 10:39:40 14° 93° (E) 10:41:30 145.935 - 145.965
UNISAT 6 21 Nov 10:37:55 10:40:23 14° 268° (W) 10:42:51 437.425
FALCONSAT 3 21 Nov 10:40:20 10:43:53 46° 168° (SSE) 10:47:25 435.103
TIGRISAT 21 Nov 10:42:17 10:44:42 14° 268° (W) 10:47:06 435.000
DELFI C3 21 Nov 10:45:29 10:48:38 23° 290° (WNW) 10:51:46 145.870
QB50P2 21 Nov 10:59:59 11:03:57 41° 73° (ENE) 11:07:57 145.880/145.840
BEESAT 3 21 Nov 11:00:03 11:03:10 22° 50° (NE) 11:06:14 437.485
AO-85 21 Nov 11:37:04 11:37:53 10° 42° (NE) 11:38:42 145.980
SPROUT 21 Nov 11:47:49 11:50:31 16° 93° (E) 11:53:10 437.525
DUCHIFAT 1 21 Nov 11:49:00 11:53:12 75° 259° (W) 11:57:24 145.980
AIST 2D 21 Nov 11:50:06 11:51:50 13° 267° (W) 11:53:33 435.315
EO-79 21 Nov 11:56:49 12:00:53 45° 261° (W) 12:04:57 145.935-145.965
NANOSAT C BR1 21 Nov 11:59:53 12:03:57 47° 260° (W) 12:08:02 145.865
ESTCUBE 1 21 Nov 12:07:43 12:12:12 63° 285° (WNW) 12:16:39 437.505/2401.250
LO-87 21 Nov 12:10:03 12:13:07 29° 288° (WNW) 12:16:10 145.935 - 145.965
BEESAT 2 21 Nov 12:11:35 12:15:18 35° 54° (NE) 12:18:58 435.950
POLYITAN 1 21 Nov 12:12:37 12:16:21 30° 263° (W) 12:20:05 437.675
O/OREOS (USA 219) 21 Nov 12:18:57 12:21:23 14° 99° (E) 12:23:49 437.305
FALCONSAT 3 21 Nov 12:19:09 12:22:48 59° 184° (S) 12:26:25 435.103
VELOX 1 21 Nov 12:27:26 12:31:20 29° 97° (E) 12:35:11 145.980
BEESAT 3 21 Nov 12:37:18 12:40:41 28° 247° (WSW) 12:44:00 437.485
QB50P2 21 Nov 12:37:32 12:39:53 15° 267° (W) 12:42:15 145.880/145.840
BUGSAT 1 21 Nov 12:40:29 12:44:42 82° 258° (WSW) 12:48:52 437.445
Oscar 19 21 Nov 12:47:05 12:52:06 59° 73° (ENE) 12:57:07 437.125/150
AO-7 21 Nov 13:10:27 13:16:08 21° 54° (NE) 13:21:48 .
DX 1 21 Nov 13:12:34 13:15:45 20° 95° (E) 13:18:56 434.975-435.025
AO-85 21 Nov 13:14:18 13:19:02 70° 58° (ENE) 13:24:06 145.980
Gurwin Techsat 1B 21 Nov 13:14:20 13:19:37 77° 75° (ENE) 13:24:57 435.225
SPROUT 21 Nov 13:22:36 13:26:30 36° 288° (WNW) 13:30:22 437.525
BEESAT 2 21 Nov 13:50:05 13:52:43 17° 250° (WSW) 13:55:20 435.950
M-CUBED/EXP-1 PRIME 21 Nov 13:51:29 13:54:55 61° 70° (ENE) 13:58:40 437.505
50 SAT 21 Nov 13:52:02 13:55:14 72° 103° (ESE) 13:58:24 437.505
UKube-1 21 Nov 13:53:22 13:57:19 34° 98° (E) 14:01:14 .
O/OREOS (USA 219) 21 Nov 13:55:52 14:00:18 49° 294° (WNW) 14:04:47 437.305
FALCONSAT 3 21 Nov 13:58:20 14:01:38 31° 199° (SSW) 14:04:55 435.103
VELOX 1 21 Nov 14:04:06 14:07:35 23° 292° (WNW) 14:11:04 145.980
Oscar 19 21 Nov 14:29:03 14:31:46 14° 268° (W) 14:34:29 437.125/150
ITAMSAT 1 21 Nov 14:40:25 14:45:16 41° 70° (ENE) 14:50:09 435.822/435.867
NO-84 21 Nov 14:44:49 14:48:18 59° 131° (SE) 14:52:06 435.350 FM
DX 1 21 Nov 14:48:03 14:51:57 33° 290° (WNW) 14:55:50 434.975-435.025
BEESAT 21 Nov 14:56:26 15:00:11 23° 95° (E) 15:03:55 436.000
AO-85 21 Nov 14:56:44 14:59:00 13° 252° (WSW) 15:01:19 145.980
Gurwin Techsat 1B 21 Nov 14:58:26 15:00:05 11° 270° (W) 15:01:45 435.225
AO-7 21 Nov 14:59:34 15:07:51 86° 253° (WSW) 15:16:12 .
ITUPSAT 1 21 Nov 15:06:07 15:10:13 28° 97° (E) 15:14:17 437.325
DOVE 4 21 Nov 15:11:53 15:14:11 13° 62° (ENE) 15:16:31 437.250
MOZHAYETS 4 21 Nov 15:14:42 15:19:07 50° 100° (E) 15:23:33
CUBESAT XI-V 21 Nov 15:28:33 15:31:20 15° 92° (E) 15:34:06 437.345
UKube-1 21 Nov 15:30:01 15:33:03 19° 293° (WNW) 15:36:05 .
JUGNU 21 Nov 15:52:48 15:55:08 12° 177° (S) 15:57:28 437.505
CUTE-I 21 Nov 16:18:50 16:20:45 12° 60° (ENE) 16:22:40 437.470
ITAMSAT 1 21 Nov 16:20:51 16:24:50 22° 265° (W) 16:28:51 435.822/435.867
NO-84 21 Nov 16:23:10 16:25:58 19° 330° (NNW) 16:28:56 435.350 FM
YUBILEINY 21 Nov 16:28:37 16:37:16 54° 78° (ENE) 16:45:49 435.215
BEESAT 21 Nov 16:33:44 16:37:57 33° 290° (WNW) 16:42:10 436.000
HO-68 21 Nov 16:36:07 16:38:41 12° 53° (NE) 16:41:16 435.675
XW-2B 21 Nov 16:40:05 16:42:07 14° 68° (ENE) 16:44:08 145.730 - 145.750
ITUPSAT 1 21 Nov 16:43:57 16:47:55 27° 292° (WNW) 16:51:52 437.325
DOVE 4 21 Nov 16:46:07 16:51:05 74° 259° (WSW) 16:56:19 437.250
NUDT-PHONESAT 21 Nov 16:53:08 16:55:00 14° 68° (ENE) 16:56:53 437.300
MOZHAYETS 4 21 Nov 16:53:15 16:55:50 15° 295° (WNW) 16:58:24
AO-7 21 Nov 16:57:19 17:01:36 15° 269° (W) 17:05:55 .
KKS-1 21 Nov 17:03:35 17:07:39 34° 98° (E) 17:11:40 437.445
XW-2C 21 Nov 17:04:21 17:07:34 29° 72° (ENE) 17:10:49 145.795 - 145.815
CUBESAT XI-V 21 Nov 17:04:24 17:08:53 47° 287° (WNW) 17:13:23 437.345
LilacSat-2 21 Nov 17:06:45 17:10:09 33° 72° (ENE) 17:13:33 437.200
XW-2F 21 Nov 17:14:24 17:17:47 35° 73° (ENE) 17:21:11 145.980 - 146.000
CUTE 1.7 + AOD 2 21 Nov 17:21:20 17:22:33 11° 64° (ENE) 17:23:47 437.475
STARS 21 Nov 17:26:49 17:30:20 23° 96° (E) 17:33:50 437.465
SRMSAT 21 Nov 17:39:34 17:40:26 10° 170° (S) 17:41:17 437.500
KAITUO 1B 21 Nov 17:41:09 17:44:45 62° 76° (ENE) 17:48:23 145.475/437.950
JUGNU 21 Nov 17:41:32 17:43:15 11° 187° (S) 17:44:58 437.505
SEEDS 21 Nov 17:49:42 17:51:56 14° 66° (ENE) 17:54:10 437.485
CUTE-I 21 Nov 17:54:39 18:00:00 86° 256° (WSW) 18:05:25 437.470
XW-2D 21 Nov 17:57:27 18:01:04 50° 261° (W) 18:04:42 145.860 - 145.880
RS-15 21 Nov 18:03:55 18:15:34 53° 110° (ESE) 18:27:15 29.354- 29.394
XW-2B 21 Nov 18:12:35 18:15:58 33° 263° (W) 18:19:22 145.730 - 145.750
HO-68 21 Nov 18:17:59 18:25:06 69° 71° (ENE) 18:32:15 435.675
CUBEBUG 2 21 Nov 18:19:43 18:23:48 32° 72° (ENE) 18:27:48 437.445
NUDT-PHONESAT 21 Nov 18:25:15 18:28:31 32° 262° (W) 18:31:50 437.300
YUBILEINY 21 Nov 18:26:12 18:33:33 31° 276° (W) 18:40:52 435.215
XW-2C 21 Nov 18:39:29 18:41:46 16° 266° (W) 18:44:04 145.795 - 145.815
KKS-1 21 Nov 18:40:42 18:43:57 20° 293° (WNW) 18:47:11 437.445
LilacSat-2 21 Nov 18:42:36 18:44:30 13° 267° (W) 18:46:25 437.200
XW-2F 21 Nov 18:50:24 18:52:01 12° 268° (W) 18:53:38 145.980 - 146.000
CUTE 1.7 + AOD 2 21 Nov 18:53:43 18:57:50 58° 260° (W) 19:01:59 437.475
STARS 21 Nov 19:02:54 19:06:36 28° 291° (WNW) 19:10:17 437.465
ZACube-1 21 Nov 19:04:47 19:08:29 28° 71° (ENE) 19:12:07 437.345
UWE-3 21 Nov 19:14:57 19:19:24 75° 77° (ENE) 19:23:45 435.000/436.395/437.385
SEEDS 21 Nov 19:23:16 19:27:12 43° 261° (W) 19:31:12 437.485
SRMSAT 21 Nov 19:26:05 19:28:42 13° 180° (S) 19:31:20 437.500
AAUSAT CUBESAT 2 21 Nov 19:27:58 19:32:04 86° 76° (ENE) 19:36:13 437.432
XW-2A 21 Nov 19:38:07 19:41:19 49° 260° (W) 19:44:33 145.665 - 145.685
STRAND 1 21 Nov 19:49:47 19:54:54 81° 103° (ESE) 20:00:00 437.568
AO-73 21 Nov 19:54:43 19:59:02 85° 256° (WSW) 20:03:17 145.935
DELFI C3 21 Nov 19:56:11 19:57:15 11° 65° (ENE) 19:58:21 145.870
CUBEBUG 2 21 Nov 19:56:55 20:00:25 21° 265° (W) 20:03:51 437.445
nSIGHT-1 21 Nov 20:03:12 20:06:12 39° 135° (SE) 20:09:14 .
HO-68 21 Nov 20:08:19 20:13:20 20° 267° (W) 20:18:23 435.675
Oscar 11 21 Nov 20:10:25 20:14:41 86° 258° (WSW) 20:19:00 .
FO-29 21 Nov 20:14:47 20:22:05 41° 96° (E) 20:28:52 435.910
RS-15 21 Nov 20:16:26 20:28:13 49° 312° (NW) 20:39:58 29.354- 29.394
SO-50 21 Nov 20:32:26 20:34:57 15° 109° (ESE) 20:37:29 436.795
ZACube-1 21 Nov 20:41:22 20:44:43 22° 265° (W) 20:48:01 437.345
EO-88 21 Nov 20:48:42 20:51:25 20° 70° (ENE) 20:54:09 145.990 - 145.960
ISS 21 Nov 20:49:02 20:52:17 79° 320° (NW) 20:55:33 437.550
Max Valier Satellite 21 Nov 20:51:18 20:54:34 32° 73° (ENE) 20:57:51 145.860
UNISAT 6 21 Nov 20:55:28 20:56:04 10° 91° (E) 20:56:41 437.425
TIGRISAT 21 Nov 20:59:32 21:00:14 10° 91° (E) 21:00:56 435.000
SRMSAT 21 Nov 21:16:37 21:16:59 10° 191° (S) 21:17:21 437.500
NO-84 21 Nov 21:19:09 21:22:38 24° 33° (NNE) 21:26:07 435.350 FM
DELFI C3 21 Nov 21:27:39 21:31:29 52° 260° (W) 21:35:23 145.870
STRAND 1 21 Nov 21:31:40 21:33:21 12° 299° (WNW) 21:35:02 437.568
nSIGHT-1 21 Nov 21:39:57 21:42:32 22° 331° (NNW) 21:45:07 .
PRISM 21 Nov 21:41:42 21:42:58 11° 92° (E) 21:44:13 437.425
FO-29 21 Nov 21:59:48 22:06:55 40° 294° (WNW) 22:13:39 435.910
SO-50 21 Nov 22:10:37 22:14:56 50° 304° (NW) 22:19:20 436.795
EO-88 21 Nov 22:22:12 22:24:56 20° 265° (W) 22:27:42 145.990 - 145.960
Max Valier Satellite 21 Nov 22:26:42 22:28:28 13° 267° (W) 22:30:15 145.860
ISS 21 Nov 22:27:24 22:29:13 14° 338° (NNW) 22:31:02 437.550
UNISAT 6 21 Nov 22:28:56 22:33:07 57° 286° (WNW) 22:37:16 437.425
O/OREOS (USA 219) 21 Nov 22:29:06 22:32:35 21° 59° (ENE) 22:36:03 437.305
TIGRISAT 21 Nov 22:33:06 22:37:15 56° 286° (WNW) 22:41:23 435.000
RS-15 21 Nov 22:36:35 22:44:50 20° 342° (NNW) 22:52:59 29.354- 29.394
SPROUT 21 Nov 22:41:07 22:42:06 11° 64° (ENE) 22:43:05 437.525
LO-87 21 Nov 22:43:07 22:46:42 74° 77° (ENE) 22:50:18 145.935 - 145.965
NO-84 21 Nov 22:56:05 23:00:15 54° 229° (SW) 23:04:20 435.350 FM
